Location: 臺北天文館
(25.0958°N, 121.5183°E)
Time: 23:21:34
(UTC+08:00)

ISS - Visible Passes

Search period start: 10 March 2026 00:00
Search period end: 20 March 2026 00:00
Orbit: 416 x 426 km, 51.6° (Epoch: 10 March)

Date Brightness Start Highest point End Pass type
(mag) Time Alt. Az. Time Alt. Az. Time Alt. Az.
10 Mar -1.2 04:45:45 12° S 04:45:45 12° S 04:46:04 10° S visible
10 Mar -1.0 19:41:54 10° W 19:44:06 16° NW 19:45:27 13° NNW visible
11 Mar -1.8 18:53:59 10° WSW 18:56:58 28° NW 18:59:57 10° NNE visible
